Date,TemperatureHighF,TemperatureAvgF,TemperatureLowF,DewpointHighF,DewpointAvgF,DewpointLowF,HumidityHigh,HumidityAvg,HumidityLow,PressureMaxIn,PressureMinIn,WindSpeedMaxMPH,WindSpeedAvgMPH,GustSpeedMaxMPH,PrecipitationSumIn
2013-1-1,13.8,4.2,-7.4,11.2,-1.9,-11.3,89,76,50,30.25,30.07,13,6,13,0.00
2013-1-2,16.2,13.3,8.6,13.9,9.3,4.7,92,83,68,30.07,29.97,17,6,19,0.00
2013-1-3,18.9,14.1,6.1,17.7,12.2,3.5,95,92,85,30.17,30.05,16,6,16,0.00
2013-1-4,32.2,21.2,8.2,17.3,14.0,6.1,92,75,52,30.16,30.00,18,7,20,0.00
2013-1-5,28.4,17.0,8.8,17.6,12.6,6.9,93,83,63,30.14,29.86,17,6,17,0.00
2013-1-6,26.8,18.7,10.8,17.5,12.5,6.7,90,77,54,30.21,29.94,14,6,15,0.00
2013-1-7,35.6,25.9,10.8,25.0,19.7,6.3,93,77,64,30.12,29.91,25,13,27,0.00
2013-1-8,37.8,28.0,16.7,30.7,24.3,15.6,98,87,67,30.01,29.80,21,8,28,0.00
2013-1-9,36.9,30.9,22.3,27.5,22.5,18.0,87,72,50,30.37,29.89,25,11,31,0.00
2013-1-10,40.3,30.1,20.8,33.4,22.2,15.8,99,75,37,30.39,29.80,19,10,20,0.00
2013-1-11,41.2,37.0,33.3,40.9,36.8,33.0,99,99,99,29.82,29.44,17,11,19,0.00
2013-1-12,42.1,20.3,7.2,41.8,15.0,0.7,99,80,66,30.05,29.44,32,14,34,0.00
2013-1-13,11.8,6.1,2.3,5.2,1.0,-1.6,85,79,68,30.22,29.99,15,6,19,0.00
2013-1-14,12.2,5.9,-0.8,6.1,1.5,-3.8,88,82,73,30.37,30.21,14,6,19,0.00
2013-1-15,29.8,17.6,2.7,17.7,10.7,0.0,92,75,54,30.32,29.88,26,12,26,0.00
2013-1-16,34.3,25.0,12.4,29.7,17.5,-0.2,97,74,46,30.18,29.66,30,12,31,0.00
2013-1-17,18.3,11.0,6.6,6.7,0.8,-4.2,84,63,45,30.37,30.18,11,5,17,0.00
2013-1-18,41.0,25.5,7.7,31.0,20.2,3.8,92,81,62,30.32,29.74,22,10,24,0.00
2013-1-19,40.8,25.0,2.5,32.2,19.5,-5.8,97,80,55,30.11,29.67,42,11,42,0.00
2013-1-20,8.1,1.6,-3.6,-2.8,-6.4,-9.1,79,69,48,30.33,30.10,18,8,19,0.00
2013-1-21,-0.9,-8.6,-11.9,-6.5,-17.2,-21.3,77,65,49,30.27,30.18,17,8,23,0.00
2013-1-22,-0.2,-7.6,-16.1,-8.6,-15.8,-21.7,75,67,52,30.35,30.22,11,5,17,0.00
2013-1-23,17.4,3.1,-8.3,7.7,-5.2,-18.0,85,68,48,30.54,30.09,24,8,26,0.00
2013-1-24,8.6,-1.6,-10.8,1.5,-10.0,-18.3,73,66,61,30.63,30.22,18,6,20,0.00
2013-1-25,18.9,12.0,6.3,14.5,6.9,1.2,92,80,59,30.25,29.92,21,8,21,0.00
2013-1-26,21.4,10.8,-1.5,10.8,2.6,-4.8,86,70,52,30.36,30.17,20,7,24,0.00
2013-1-27,29.1,25.4,19.8,28.9,20.0,10.5,99,81,60,30.19,29.83,18,8,19,0.00
2013-1-28,32.5,30.1,28.6,32.3,29.9,28.3,99,99,99,29.94,29.68,0,0,0,0.00
2013-1-29,33.6,32.2,27.9,33.4,31.1,23.1,99,96,82,29.70,29.53,16,4,20,0.00
2013-1-30,27.9,17.8,9.0,23.4,12.8,2.9,87,80,72,29.68,29.56,23,11,23,0.00
2013-1-31,9.0,3.2,-7.2,4.8,-3.6,-14.3,84,73,59,30.17,29.68,18,10,25,0.00
2013-2-1,0.5,-5.8,-15.0,-4.0,-14.5,-21.1,81,65,48,30.27,30.06,14,6,18,0.00
2013-2-2,13.8,4.6,-2.2,1.9,-2.9,-6.2,85,72,46,30.15,29.96,8,4,9,0.00
2013-2-3,18.0,9.8,4.3,3.9,1.9,-0.7,87,71,47,30.02,29.93,14,5,20,0.00
2013-2-4,18.1,9.4,1.0,5.1,-1.0,-7.6,85,63,39,30.05,29.83,12,4,13,0.00
2013-2-5,26.6,18.2,9.1,22.5,13.1,1.2,96,81,58,30.07,29.65,15,7,18,0.00
2013-2-6,24.3,14.9,3.2,22.3,12.0,0.2,92,88,78,30.14,29.99,15,5,15,0.00
2013-2-7,25.0,24.0,23.0,24.2,22.3,20.0,99,93,88,30.24,30.02,15,7,17,0.00
2013-2-8,28.2,18.9,10.0,20.0,10.7,6.2,90,71,47,30.39,30.24,14,4,14,0.00
2013-2-9,28.0,22.9,11.5,25.8,20.0,5.9,96,88,75,30.29,29.99,24,13,25,0.00
2013-2-10,34.7,29.5,24.6,34.5,28.8,22.8,99,97,91,30.00,29.28,20,6,20,0.07
2013-2-11,32.9,26.6,14.4,32.5,24.2,10.5,99,91,80,30.01,29.28,22,9,22,0.01
2013-2-12,33.8,23.5,13.8,25.0,18.2,11.6,91,81,63,30.03,29.80,22,9,22,0.00
2013-2-13,36.0,27.9,20.3,30.5,23.3,18.1,99,83,66,29.81,29.59,13,5,13,0.00
2013-2-14,35.4,26.3,12.7,30.3,20.2,1.2,99,79,52,30.11,29.59,15,6,17,0.00
2013-2-15,19.8,11.8,5.9,4.5,0.8,-1.2,74,61,45,30.24,30.11,15,6,18,0.00
2013-2-16,20.5,8.7,0.1,3.7,-0.6,-4.2,82,66,43,30.20,30.14,8,4,8,0.00
2013-2-17,29.1,13.9,-2.7,15.4,5.1,-6.7,85,69,50,30.15,29.75,21,11,23,0.00
2013-2-18,37.4,24.9,14.4,29.8,20.2,10.2,92,82,68,29.76,29.52,23,9,24,0.00
2013-2-19,14.4,6.6,1.0,9.9,-3.7,-8.5,82,62,45,30.27,29.67,21,11,25,0.00
2013-2-20,23.4,9.2,-4.4,7.2,-0.2,-9.9,81,66,47,30.41,30.27,13,5,15,0.00
2013-2-21,22.5,13.4,2.8,14.4,4.6,-1.7,84,68,49,30.45,30.11,12,5,15,0.00
2013-2-22,30.4,23.8,19.9,25.4,21.4,14.1,96,91,75,30.11,29.83,15,5,17,0.00
2013-2-23,33.3,25.0,20.7,26.2,22.1,20.0,99,89,71,29.95,29.82,11,5,13,0.00
2013-2-24,37.9,27.6,18.1,24.5,20.1,16.5,95,74,49,30.11,29.94,11,4,11,0.00
2013-2-25,33.1,28.0,23.7,27.0,23.7,19.6,89,84,76,30.12,30.04,9,3,9,0.00
2013-2-26,39.2,31.7,27.0,26.6,24.8,23.4,88,76,55,30.07,29.85,20,8,21,0.00
2013-2-27,35.6,31.2,28.8,27.5,25.0,22.5,86,78,67,29.98,29.82,19,11,24,0.00
2013-2-28,30.6,27.3,21.7,25.5,20.1,14.2,85,74,63,30.22,29.97,19,10,21,0.00
2013-3-1,31.8,23.1,14.5,15.5,12.4,9.6,82,64,41,30.32,30.21,14,7,20,0.00
2013-3-2,31.5,19.1,6.3,13.8,8.0,3.8,90,65,34,30.33,30.17,8,4,9,0.00
2013-3-3,34.3,21.2,8.4,9.7,2.1,-8.8,70,45,27,30.17,30.04,9,4,9,0.00
2013-3-4,28.9,22.7,16.0,19.5,9.1,-7.6,86,57,31,30.08,30.00,17,7,18,0.00
2013-3-5,27.7,23.7,20.8,24.4,21.4,18.9,95,91,84,30.23,30.01,13,6,14,0.00
2013-3-6,34.2,23.3,12.7,20.0,15.5,9.6,92,74,47,30.36,30.22,11,6,11,0.01
2013-3-7,36.1,23.0,9.3,16.4,12.6,7.3,92,67,41,30.40,30.33,10,4,11,0.00
2013-3-8,41.2,29.2,14.9,27.9,21.1,11.6,93,72,56,30.37,30.16,18,10,21,0.00
2013-3-9,36.9,33.0,29.5,36.6,31.8,24.1,99,95,75,30.16,29.75,23,10,24,0.00
2013-3-10,36.3,33.3,28.4,35.0,31.4,28.2,99,93,79,29.93,29.77,23,10,24,0.00
2013-3-11,29.7,27.1,25.0,29.4,25.9,22.3,99,95,88,29.83,29.69,17,9,19,0.00
2013-3-12,35.8,24.4,17.6,23.7,17.0,9.1,95,76,42,30.11,29.79,24,8,24,0.00
2013-3-13,37.2,23.1,10.8,13.5,6.8,0.8,78,53,21,30.32,30.11,16,7,17,0.00
2013-3-14,37.8,26.0,16.9,27.1,20.5,10.6,95,80,65,30.27,30.02,12,6,14,0.00
2013-3-15,36.9,30.1,23.7,31.2,26.2,-24.8,99,86,10,30.03,29.85,12,5,15,0.00
2013-3-16,33.6,21.3,12.2,23.5,14.2,-27.2,99,77,10,30.19,29.87,17,7,17,0.00
2013-3-17,32.5,16.4,4.3,13.2,4.4,-3.8,74,60,37,30.25,29.95,19,8,24,0.00
2013-3-18,27.7,20.1,13.5,26.5,16.8,9.0,98,87,73,29.96,29.59,27,14,30,0.00
2013-3-19,27.5,15.5,6.4,9.5,3.0,-3.8,83,59,36,30.08,29.70,27,15,29,0.00
2013-3-20,25.5,11.6,0.9,3.2,-2.1,-7.8,70,54,36,30.11,30.06,17,8,21,0.00
2013-3-21,34.0,16.2,-0.6,9.2,3.9,-4.4,84,61,33,30.10,30.02,10,4,10,0.00
2013-3-22,43.2,23.9,8.4,14.9,9.2,3.1,80,55,26,30.08,30.02,11,5,13,0.00
2013-3-23,44.8,29.1,15.4,22.3,17.5,11.0,88,64,37,30.15,30.05,9,4,9,0.00
2013-3-24,35.4,28.6,23.0,30.2,21.1,17.9,83,73,59,30.11,29.94,17,7,17,0.00
2013-3-25,41.0,27.9,18.1,23.5,18.3,14.7,87,69,40,30.19,29.99,17,8,23,0.00
2013-3-26,42.6,33.0,24.6,24.4,20.2,17.5,79,61,38,30.28,30.19,11,4,11,0.00
2013-3-27,49.5,36.5,28.6,21.3,16.9,10.7,71,47,21,30.33,30.28,10,4,10,0.00
2013-3-28,47.8,35.8,23.0,21.0,15.7,12.6,74,46,25,30.35,30.28,14,4,15,0.00
2013-3-29,45.3,38.0,27.9,25.8,20.7,15.1,60,50,35,30.31,30.14,11,6,12,0.00
2013-3-30,43.3,38.7,36.0,43.1,35.2,25.4,99,88,59,30.14,29.84,23,9,24,0.01
2013-3-31,41.2,33.7,25.0,37.3,24.9,11.7,97,73,33,30.02,29.77,18,9,22,0.00
2013-4-1,34.7,25.8,16.3,13.7,11.5,7.7,76,55,36,30.20,30.02,18,9,22,0.00
2013-4-2,38.3,26.7,15.4,16.9,12.1,8.7,76,55,33,30.34,30.20,14,6,14,0.00
2013-4-3,41.2,30.8,18.1,24.0,14.7,7.4,74,53,26,30.43,30.13,26,10,26,0.00
2013-4-4,51.8,41.7,34.2,33.5,25.4,18.1,67,53,33,30.15,30.01,27,10,27,0.00
2013-4-5,43.2,34.4,25.3,32.1,19.0,8.1,99,56,30,30.26,30.01,14,6,17,0.00
2013-4-6,47.3,36.8,31.8,36.4,30.6,24.5,99,80,49,30.02,29.54,31,12,31,0.01
2013-4-7,45.1,37.0,33.6,35.1,33.2,31.9,99,87,64,29.97,29.72,14,5,16,0.00
2013-4-8,41.5,38.5,35.1,39.5,37.1,34.0,99,95,87,30.05,29.77,8,3,11,0.00
2013-4-9,40.3,36.5,32.5,37.9,33.7,24.2,99,90,61,30.17,30.00,17,8,21,0.00
2013-4-10,47.5,34.8,27.0,34.8,25.6,16.2,99,71,45,30.19,29.94,19,8,25,0.00
2013-4-11,38.1,33.1,28.0,34.5,27.5,16.2,99,82,45,29.95,29.71,26,11,29,0.00
2013-4-12,39.6,31.6,26.8,31.6,27.8,26.0,99,87,63,29.82,29.65,10,6,13,0.00
2013-4-13,45.3,31.9,20.8,34.7,24.7,13.2,97,75,50,30.00,29.81,13,5,19,0.00
2013-4-14,40.8,30.1,24.4,34.5,27.5,20.3,99,90,76,30.00,29.60,23,5,23,0.00
2013-4-15,46.9,37.3,27.1,44.5,32.3,21.8,99,83,61,30.25,29.62,34,12,36,0.00
2013-4-16,53.2,39.0,28.0,38.7,27.8,21.0,81,65,43,30.63,30.24,18,6,18,0.00
2013-4-17,93.0,36.2,31.8,32.0,28.0,18.7,76,72,68,30.63,30.40,17,5,20,0.00
2013-4-30,80.1,70.6,58.1,57.6,40.3,20.2,62,34,21,29.86,29.45,34,12,38,0.00
2013-5-1,57.6,42.1,32.2,41.9,36.1,25.6,99,83,29,30.36,29.86,15,8,17,0.01
2013-5-2,33.6,31.5,29.5,33.4,31.3,29.2,99,99,99,30.38,30.30,13,8,19,0.00
2013-5-3,35.1,31.7,29.5,32.5,30.8,29.2,99,97,89,30.29,30.03,16,7,17,0.00
2013-5-4,57.2,40.1,32.0,40.2,35.8,31.8,99,86,53,30.07,30.00,11,5,12,0.00
2013-5-5,65.1,48.9,34.5,45.7,39.3,33.9,98,72,48,30.07,29.98,9,6,11,0.00
2013-5-6,77.0,60.1,39.9,45.4,35.9,20.9,88,49,13,30.04,29.94,12,4,14,0.00
2013-5-7,81.1,68.0,51.3,43.0,33.9,19.5,65,32,10,30.01,29.90,14,5,17,0.00
2013-5-8,81.5,69.2,55.4,46.3,38.8,26.2,54,35,14,29.95,29.87,13,4,17,0.00
2013-5-9,63.9,52.3,38.3,50.0,46.0,37.5,99,81,54,29.99,29.89,15,7,21,0.01
2013-5-10,136.0,57.1,-6.5,99.9,28.2,-40.4,95,44,10,30.01,29.82,18,7,18,0.00
2013-5-11,61.7,48.4,34.3,44.1,33.0,17.9,74,58,25,29.91,29.78,16,10,21,0.00
2013-5-12,57.0,51.2,43.9,16.4,5.5,-2.9,32,17,10,30.08,29.99,18,8,19,0.00
2013-5-13,62.6,50.2,33.4,35.7,22.8,8.6,54,36,12,30.07,29.67,21,10,26,0.00
2013-5-14,90.1,70.7,51.1,55.6,38.2,15.5,69,38,10,29.73,29.41,28,9,31,0.00
2013-5-15,79.2,67.7,55.8,45.4,40.4,29.2,65,39,18,29.84,29.55,21,8,21,0.00
2013-5-16,85.1,71.0,57.0,47.7,32.5,14.4,63,30,10,29.89,29.77,13,6,19,0.00
2013-5-17,64.2,55.8,50.5,53.9,46.1,25.5,99,73,23,29.99,29.89,21,10,21,0.01
2013-5-18,78.4,62.2,50.9,63.5,56.0,50.1,99,82,53,29.97,29.79,20,8,23,0.00
2013-5-19,86.4,69.1,61.3,65.9,61.5,58.8,99,79,41,29.81,29.57,24,9,26,0.22
2013-5-20,74.7,66.0,60.8,62.8,59.2,54.6,99,81,53,29.61,29.49,30,11,36,0.40
2013-5-21,67.5,60.5,53.1,64.3,58.6,52.8,99,94,69,29.64,29.50,12,3,20,0.73
2013-5-22,57.4,51.6,47.3,54.1,49.8,47.0,99,94,81,29.89,29.62,13,6,19,0.09
2013-5-23,62.2,51.1,40.1,46.6,30.9,17.7,89,52,20,30.27,29.89,18,9,20,0.00
2013-5-24,68.7,54.2,37.2,39.0,32.1,26.0,76,46,20,30.35,30.19,14,6,19,0.00
2013-5-25,60.6,55.8,50.5,49.1,44.4,36.7,93,67,46,30.25,30.19,17,7,20,0.00
2013-5-26,66.2,57.4,46.6,45.4,37.7,26.0,78,51,22,30.21,30.04,21,8,24,0.00
2013-5-27,60.6,55.6,51.1,55.0,47.9,40.7,99,76,58,30.04,29.82,14,8,21,0.14
2013-5-28,57.9,49.9,14.0,57.7,49.7,13.8,99,99,99,29.81,29.68,8,3,14,0.07
2013-6-10,74.5,70.3,63.5,59.1,57.8,55.7,83,65,52,30.02,29.99,8,4,8,0.00
2013-6-11,77.9,67.9,59.0,65.5,61.8,57.3,97,82,58,30.07,30.00,11,3,15,0.00
2013-6-12,68.9,64.7,60.8,66.6,63.3,60.2,99,95,87,30.10,29.93,10,3,14,0.28
2013-6-13,76.5,66.3,56.5,61.8,51.4,45.4,99,61,37,30.27,30.03,14,5,14,0.00
2013-6-14,80.8,65.9,50.0,78.0,52.5,46.2,92,65,39,30.30,30.00,18,8,21,0.12
2013-6-15,134.4,50.5,-33.0,99.9,47.0,-33.2,99,91,83,30.03,29.92,16,7,17,0.30
2013-6-16,86.5,34.0,-18.4,62.7,23.6,-43.2,98,74,25,29.96,29.91,16,5,18,0.12
2013-6-17,80.1,69.4,57.4,58.1,52.0,44.7,78,55,36,30.05,29.91,13,5,14,0.00
2013-6-18,74.3,63.7,55.2,53.0,46.9,32.9,86,59,22,30.16,30.05,10,4,13,0.00
2013-6-19,79.5,67.5,54.1,58.3,53.1,46.7,77,61,46,30.17,30.05,15,8,19,0.00
2013-6-20,82.0,71.6,61.0,67.2,60.4,56.3,93,69,49,30.12,30.00,26,10,26,0.04
2013-6-21,76.1,68.7,63.0,66.8,64.0,58.8,99,86,65,30.15,29.78,25,7,53,1.35
2013-6-22,78.8,69.4,63.3,69.7,66.3,62.5,99,91,69,30.06,29.91,14,5,15,0.48
2013-6-23,81.7,73.0,65.1,68.9,65.2,61.3,98,78,52,29.95,29.81,28,13,32,0.00
2013-6-24,81.0,72.0,65.1,71.3,66.4,62.4,98,83,66,29.98,29.89,21,7,24,0.00
2013-6-25,82.6,73.4,63.3,69.1,65.8,61.9,97,78,56,29.92,29.80,15,6,21,0.00
2013-6-26,82.6,71.5,-7.6,79.8,69.4,-9.4,99,93,77,29.84,29.75,16,4,36,0.64
2013-6-27,70.5,46.8,-39.8,69.4,45.7,-40.3,97,96,88,29.86,29.83,0,0,0,0.00
2013-7-9,82.8,78.2,71.6,74.3,69.0,65.6,98,74,60,30.05,29.99,24,10,28,0.01
2013-7-10,77.0,70.4,61.9,66.4,55.3,48.6,85,61,39,30.22,30.05,13,6,21,0.00
2013-7-11,83.3,70.9,57.7,60.8,55.8,51.7,93,62,37,30.32,30.20,11,4,14,0.00
2013-7-12,83.8,72.4,62.4,63.2,59.2,57.0,83,64,45,30.29,30.17,24,12,30,0.04
2013-7-13,77.4,69.5,62.2,64.3,60.4,56.8,93,74,57,30.30,30.18,19,10,22,0.07
2013-7-14,84.7,74.8,65.5,66.3,62.9,61.1,87,68,48,30.40,30.30,17,7,18,0.00
2013-7-15,87.4,76.9,65.8,68.3,64.9,62.2,91,68,44,30.46,30.37,13,5,16,0.00
2013-7-16,90.7,81.3,72.1,73.0,69.2,65.3,92,68,46,30.42,30.37,18,7,19,0.00
2013-7-17,89.8,82.5,73.6,71.6,68.3,64.4,87,64,43,30.45,30.31,13,6,20,0.00
2013-7-18,92.1,83.2,73.4,71.9,67.9,64.2,87,62,42,30.31,29.98,27,11,33,0.00
2013-7-19,85.1,79.3,69.8,73.4,62.4,48.1,82,58,33,30.05,29.91,20,8,31,0.00
2013-7-20,79.3,70.9,63.0,60.7,55.7,44.6,86,60,39,30.18,30.04,8,4,12,0.00
2013-7-21,73.4,63.9,55.2,65.1,58.3,44.6,96,82,52,30.20,30.06,11,5,17,0.35
2013-7-22,83.8,70.4,59.7,74.0,63.6,54.4,99,81,54,30.08,29.86,17,9,21,0.00
2013-7-23,72.9,63.9,55.6,54.4,51.0,46.7,88,65,44,30.23,30.01,11,4,14,0.00
2013-7-24,72.7,63.3,52.9,54.1,50.6,45.2,82,64,44,30.30,30.20,8,3,12,0.00
2013-7-25,79.7,67.8,57.4,67.1,60.3,52.1,94,78,55,30.20,30.11,15,8,16,0.18
2013-7-26,70.7,63.3,51.6,65.0,56.9,46.9,99,81,56,30.23,30.07,17,6,19,0.01
2013-7-27,58.1,52.2,45.7,51.1,47.1,43.8,95,83,64,30.22,30.08,14,6,21,0.05
2013-7-28,67.3,57.0,47.8,53.6,50.9,46.2,98,81,60,30.25,30.10,14,4,14,0.01
2013-7-29,75.7,63.9,50.5,57.8,53.4,49.4,97,71,44,30.34,30.25,11,3,12,0.00
2013-7-30,72.0,65.6,60.8,63.7,59.2,54.1,95,80,67,30.34,30.25,13,4,17,0.00
2013-7-31,77.9,68.1,62.1,65.8,59.7,49.8,99,77,45,30.27,30.15,17,5,22,0.00
2013-8-1,78.3,67.4,54.9,55.2,51.6,45.9,85,59,32,30.23,30.07,15,5,21,0.00
2013-8-2,75.7,67.5,56.7,58.6,52.1,45.5,90,60,35,30.22,30.04,12,4,14,0.00
2013-8-3,75.7,65.0,52.3,55.5,48.4,40.8,92,59,29,30.38,30.22,10,3,17,0.00
2013-8-4,75.6,64.0,52.5,55.2,50.7,46.4,91,65,36,30.45,30.25,11,4,14,0.00
2013-8-5,72.0,64.1,56.1,65.3,59.9,52.1,97,87,77,30.25,30.05,17,6,17,0.21
2013-8-6,80.2,71.3,60.4,66.6,62.6,57.2,96,75,49,30.05,29.86,22,6,22,0.12
2013-8-7,73.8,65.3,58.1,61.6,55.2,47.3,99,73,40,30.20,29.93,9,4,11,0.00
2013-8-8,77.0,64.6,52.9,57.2,52.4,48.0,93,68,37,30.25,30.16,12,4,17,0.00
2013-8-9,76.5,66.3,57.4,60.1,52.4,45.3,96,64,34,30.27,30.16,13,4,15,0.00
2013-8-10,72.9,65.4,58.8,54.9,51.8,48.0,81,63,42,30.35,30.27,8,2,10,0.00
2013-8-11,75.6,65.7,57.0,61.6,57.0,50.8,91,74,56,30.30,30.17,8,2,8,0.00
2013-8-12,78.8,66.9,58.1,65.0,56.3,47.8,98,73,37,30.24,30.14,11,4,22,0.01
2013-8-13,72.3,61.5,49.6,52.1,46.9,40.2,94,62,32,30.35,30.24,11,3,13,0.00
2013-8-14,77.2,62.9,52.2,51.0,46.6,40.5,82,58,28,30.38,30.27,9,3,11,0.00
2013-8-15,78.6,67.2,56.3,53.1,48.4,38.5,79,54,24,30.32,30.25,11,4,15,0.00
2013-8-16,81.9,69.6,55.8,58.0,51.7,46.6,83,55,31,30.37,30.30,9,4,13,0.01
2013-8-17,82.0,69.7,56.1,60.0,52.2,45.1,92,57,28,30.40,30.30,20,6,22,0.00
2013-8-18,81.9,70.1,56.3,58.9,54.0,46.8,90,60,30,30.36,30.22,24,8,24,0.00
2013-8-19,83.5,70.9,60.6,64.8,60.5,55.9,85,71,48,30.24,30.12,21,9,21,0.00
2013-8-20,89.4,76.0,63.3,69.1,65.7,61.0,92,72,45,30.15,30.07,25,10,27,0.00
2013-8-21,91.0,74.8,66.7,88.5,68.5,66.2,98,82,62,30.14,30.00,7,1,12,0.68
2013-8-22,82.4,71.3,61.2,67.7,56.4,46.7,99,65,31,30.25,30.14,10,4,12,0.01
2013-8-23,84.9,70.0,54.9,63.9,56.9,47.4,88,65,39,30.30,30.19,14,6,17,0.00
2013-8-24,83.5,71.6,60.1,71.1,64.6,58.6,98,79,60,30.29,30.13,27,12,27,0.22
2013-8-25,91.8,81.6,73.6,73.7,71.1,69.0,86,72,52,30.18,30.08,25,14,31,0.00
2013-8-26,91.0,82.5,74.7,75.4,72.6,70.3,89,73,54,30.17,30.00,22,9,22,0.05
2013-8-27,96.8,80.8,63.3,88.1,72.6,53.8,89,77,53,30.13,29.93,14,6,15,0.00
2013-8-28,86.0,75.6,68.9,72.5,70.1,68.3,99,84,58,30.18,30.06,11,3,11,0.00
2013-8-29,89.2,78.3,68.7,75.4,70.9,67.6,98,79,58,30.19,30.03,16,7,18,0.00
2013-8-30,81.5,75.5,66.4,72.8,66.5,60.0,97,75,51,30.05,29.96,16,5,23,0.01
2013-8-31,83.7,71.7,60.1,66.6,63.3,59.2,97,77,51,30.05,29.89,11,5,14,0.00
2013-9-1,76.3,69.8,59.9,67.2,60.7,53.0,91,74,53,30.08,29.88,14,6,16,0.00
2013-9-2,67.5,59.9,52.3,53.2,49.7,46.4,86,70,47,30.22,30.07,8,4,11,0.01
2013-9-3,73.8,61.3,47.1,55.1,50.6,45.8,96,70,43,30.26,30.14,11,4,12,0.00
2013-9-4,82.2,68.5,59.0,62.9,57.0,51.3,86,68,47,30.31,30.17,8,3,9,0.00
2013-9-5,78.3,64.4,51.4,61.4,53.1,41.9,96,70,36,30.42,30.29,8,2,11,0.00
2013-9-6,85.8,67.3,46.9,78.7,59.7,45.0,97,79,42,30.30,30.12,12,4,17,0.11